Theta_e
283 283 282 282 282 282 280 281 280 281 282 281 280 281 281 282 282 281 281 282 282 282 283 283 284 286 286 286 284 287 287 286 284 287 285 283 282 284 284 287 288 288 290
282 283 282 281 282 280 280 280 280 280 281 281 280 280 279 279 280 280 280 280 280 280 281 282 283 285 284 285 285 285 285 286 286 285 287 283 281 283 285 284 286 287 287
280 280 280 279 280 280 280 280 280 279 280 280 280 279 279 279 278 279 279 279 280 280 281 281 281 282 282 283 284 285 285 286 285 285 285 286 281 280 281 282 284 284 285
279 279 278 278 278 278 279 279 278 279 278 278 278 278 279 279 279 278 278 278 279 279 280 281 282 281 281 282 282 283 284 285 285 284 284 284 282 281 281 281 280 282 282
278 278 278 278 278 278 278 278 277 278 278 278 278 278 278 278 278 277 278 278 278 278 279 280 281 282 284 284 282 282 283 283 283 283 283 283 282 278 279 280 282 282 281
277 277 278 278 278 277 277 277 277 276 276 276 276 276 275 277 280 281 280 278 278 277 277 278 279 280 281 284 285 286 286 283 281 282 282 282 283 283 282 282 281 280 279
277 276 276 276 275 275 275 274 273 272 273 272 273 273 273 273 277 278 278 277 276 276 276 277 277 278 279 279 281 283 284 287 288 285 282 283 283 284 283 281 281 282 282
274 272 273 273 271 272 271 270 270 270 269 269 269 269 269 270 274 275 275 273 272 273 274 275 275 275 276 277 277 277 279 281 282 283 284 285 286 286 286 284 283 282 283
273 272 272 270 268 269 267 267 268 267 266 266 267 266 266 266 270 272 272 269 270 270 271 272 272 272 275 277 275 274 275 277 282 286 287 288 289 291 290 286 282 280 279
271 271 270 268 263 265 265 264 265 264 265 265 265 265 264 263 268 270 271 269 267 268 270 271 273 272 275 276 274 273 272 274 277 278 282 284 287 287 289 289 286 280 280
268 268 267 266 264 263 263 263 262 262 263 261 262 262 263 264 264 269 271 269 268 267 268 269 271 273 274 275 276 274 274 277 278 278 280 282 282 283 284 286 288 284 281
266 265 262 261 261 262 260 260 260 260 259 259 260 261 263 264 266 268 271 272 272 269 268 269 269 272 273 275 274 275 276 278 277 278 279 279 281 281 283 284 286 288 286
258 257 257 259 260 261 259 259 259 259 259 259 260 260 261 263 264 269 271 272 272 269 269 270 273 275 276 275 275 275 273 272 272 275 276 280 281 282 283 283 284 286 286
252 256 258 259 259 260 261 260 259 259 259 259 260 260 262 264 266 268 268 268 271 271 271 269 271 273 274 274 272 273 272 272 271 273 276 280 282 282 282 283 282 283 282
256 258 258 259 258 259 260 260 261 262 263 263 265 265 265 265 267 272 273 272 272 273 274 273 270 266 265 265 267 269 270 271 271 273 276 280 280 281 281 282 282 282 279
256 258 258 259 259 260 260 259 265 267 268 270 271 270 269 272 273 274 275 275 276 277 273 271 271 271 270 269 268 268 269 270 272 275 277 278 278 279 280 281 281 280 277
252 256 258 259 258 258 259 258 257 261 267 267 269 270 270 271 272 272 274 274 274 273 267 267 267 268 269 270 269 268 268 270 272 273 276 276 276 279 279 279 278 278 277
251 255 256 257 258 258 258 258 258 257 257 259 264 267 268 269 270 272 271 269 261 264 264 263 264 264 266 269 269 267 268 270 271 272 275 278 279 279 277 278 277 276 276
252 253 253 257 258 258 258 257 258 258 258 259 260 262 263 267 268 267 267 261 260 261 262 262 264 266 269 270 269 269 269 270 271 273 276 278 279 279 278 277 275 276 274
250 254 257 254 257 256 256 256 257 257 258 258 258 259 260 263 259 259 259 260 260 260 261 261 262 265 266 268 271 269 269 271 273 275 276 277 278 276 276 276 275 274 272
250 251 255 256 254 254 255 255 256 257 257 257 258 259 268 260 258 259 259 259 259 259 260 260 261 263 265 265 268 270 272 273 273 273 273 273 273 273 273 274 273 272 271
249 249 250 253 254 253 252 253 255 255 256 256 257 258 265 258 258 258 259 260 260 261 261 261 261 262 263 264 265 266 267 268 269 270 271 271 271 271 271 271 270 269 269
249 250 253 253 252 252 251 249 252 254 254 254 255 256 256 256 257 258 258 260 260 261 261 261 261 262 264 264 266 266 265 266 268 269 268 268 268 269 269 268 268 268 267
248 251 253 251 249 249 249 249 251 252 252 252 252 254 254 254 255 255 257 259 260 261 261 261 261 262 263 264 264 265 267 267 267 268 268 268 267 267 267 267 266 266 266
250 252 252 249 245 247 247 247 250 248 249 250 252 252 253 254 254 254 255 256 258 259 260 260 261 262 263 265 266 266 266 266 266 267 267 267 266 266 266 266 265 265 265
254 253 251 248 247 246 245 246 247 248 248 250 251 252 252 253 254 254 254 255 256 258 259 260 260 261 262 265 267 269 269 269 266 266 266 266 265 265 265 264 264 264 263
Wind_Speed
5 5 5 5 5 5 5 5 5 6 5 6 6 6 6 8 8 8 8 7 7 7 8 6 9 8 7 6 4 7 8 7 13 11 5 4 5 8 7 10 11 11 12
1 3 5 6 6 7 7 7 7 9 9 10 9 8 7 7 7 7 9 8 9 10 10 9 10 8 8 7 6 9 9 10 10 16 10 6 8 8 10 11 10 10 11
2 1 2 4 4 5 6 8 9 9 10 10 9 10 11 12 12 10 9 10 11 11 11 11 12 10 11 8 8 9 9 8 10 10 12 8 5 3 5 5 9 10 8
6 4 3 4 5 5 6 6 7 7 8 10 10 11 11 12 13 13 14 14 12 12 12 12 14 14 14 13 10 11 10 10 11 11 11 10 7 5 5 5 6 6 9
3 3 5 5 5 5 6 6 6 6 7 9 10 11 11 12 10 12 13 13 14 16 16 15 13 15 21 20 12 12 11 11 10 11 11 10 9 5 7 4 10 7 10
1 1 3 3 5 6 7 9 10 12 12 13 14 14 14 11 21 25 23 16 17 18 18 18 17 19 20 27 28 29 24 14 15 13 12 14 15 11 9 9 9 8 9
4 5 6 7 8 9 10 12 13 14 15 15 16 15 17 16 25 28 28 16 17 17 19 18 17 15 18 18 23 28 28 31 31 20 19 17 15 13 9 12 12 12 14
3 3 4 5 6 10 13 13 14 13 14 14 16 16 17 15 27 29 30 19 17 19 19 19 19 19 19 19 19 21 21 20 21 17 19 21 18 14 14 14 15 16 13
2 2 4 4 7 10 10 12 12 13 14 14 14 15 16 16 26 29 26 16 17 19 17 19 19 21 27 33 23 22 22 23 24 32 33 34 31 29 22 10 11 11 12
3 4 5 6 3 8 11 12 12 11 14 12 15 14 17 17 24 28 24 13 16 14 16 17 24 23 32 33 22 21 22 23 21 21 19 23 28 23 30 21 13 15 14
2 5 5 6 9 10 11 10 11 12 13 13 15 14 15 15 17 27 27 15 13 13 13 13 12 27 32 33 33 20 21 21 22 21 19 16 16 16 14 17 18 14 15
1 3 5 6 7 9 10 11 11 12 12 13 13 13 11 13 20 24 28 29 26 17 16 14 15 29 32 32 27 32 38 35 16 16 16 16 15 14 14 15 18 15 15
3 5 6 7 8 9 9 11 10 10 9 11 11 12 12 12 13 28 31 31 31 21 15 22 35 36 38 30 28 31 29 16 15 15 17 15 15 15 15 12 14 15 14
4 7 7 7 8 8 7 8 8 8 9 10 12 13 13 12 12 11 13 15 24 22 25 21 25 30 33 29 20 18 13 13 14 15 17 14 12 12 12 12 11 10 10
5 6 6 6 6 8 8 9 9 10 12 13 12 12 13 13 13 25 24 16 15 18 22 14 11 11 13 12 12 13 11 14 14 14 17 12 15 11 12 10 12 11 11
5 5 5 6 6 7 8 9 20 21 25 27 28 22 12 25 32 32 32 33 34 34 16 14 14 13 14 13 12 11 12 15 12 14 10 10 11 9 10 11 10 11 10
5 6 5 6 6 7 8 9 11 19 27 23 23 26 27 27 29 30 31 31 30 25 11 13 13 14 15 12 11 11 12 12 12 12 10 9 11 12 13 12 10 10 9
5 8 5 6 6 7 7 8 8 9 13 17 16 22 23 27 29 28 27 22 12 12 10 11 13 14 15 13 10 10 10 10 10 11 12 10 10 10 10 10 10 10 10
4 4 3 5 6 7 7 8 7 9 10 11 13 16 16 25 24 22 23 8 10 11 11 12 12 13 13 12 9 9 10 10 10 11 11 9 7 8 8 9 10 14 12
5 7 6 3 6 6 5 6 7 8 9 9 9 10 13 12 12 12 10 10 10 10 11 12 12 12 12 14 7 7 9 10 11 10 11 8 6 6 7 7 8 9 9
4 3 5 4 5 5 5 5 6 8 8 8 8 10 23 10 10 10 11 10 10 10 11 12 12 12 11 11 10 8 6 6 4 2 2 2 2 3 3 4 5 6 8
3 3 3 4 4 5 4 4 5 7 8 8 8 8 21 7 8 9 10 10 10 10 9 10 10 10 11 10 10 9 8 7 7 5 4 5 5 5 6 6 7 8 8
2 3 3 3 3 5 4 3 4 6 6 6 7 7 8 8 9 9 10 10 10 10 10 9 10 11 10 10 9 8 7 7 6 5 5 5 6 6 6 7 7 7 7
2 3 3 3 2 3 4 3 4 6 6 6 5 6 7 8 8 9 9 10 10 10 10 10 10 13 12 10 8 8 7 7 6 7 7 6 6 7 7 8 8 10 8
3 2 2 3 3 3 4 3 4 5 5 5 6 6 7 7 7 8 8 9 9 9 11 10 10 14 16 18 11 11 12 13 10 10 7 9 10 10 8 8 10 10 10
3 3 2 2 2 3 2 3 4 4 5 5 5 6 7 7 7 8 8 8 9 9 11 9 11 16 17 14 17 15 12 12 11 12 7 7 8 8 8 10 13 9 10
Wind_Direction
38 36 33 21 348 11 7 350 345 313 316 323 323 320 310 308 312 325 322 316 326 313 308 296 286 273 272 267 246 247 245 235 259 271 251 241 237 220 223 217 221 216 220
9 19 1 354 352 353 338 333 326 319 331 325 322 317 302 287 280 291 299 297 299 304 300 296 288 291 276 262 259 255 247 248 254 267 263 248 228 225 220 218 218 221 222
207 268 300 300 306 307 301 310 318 321 314 309 302 298 297 302 307 299 291 290 280 274 280 283 283 281 280 274 257 262 259 253 254 258 263 256 227 199 221 224 213 218 221
192 208 248 273 273 275 276 277 277 278 283 279 283 287 292 293 290 296 300 299 293 288 281 272 273 271 271 276 265 259 261 261 260 260 259 256 243 216 218 205 228 215 218
197 236 254 255 250 252 258 259 259 256 267 269 284 283 283 281 286 294 291 292 294 292 288 281 269 262 261 261 265 265 257 256 256 257 260 252 234 215 218 198 228 214 225
127 313 293 312 336 335 326 326 326 320 316 311 305 301 297 289 293 297 298 295 293 287 284 283 282 281 273 273 270 269 261 257 255 252 251 248 246 233 229 223 215 208 239
13 2 353 349 342 341 337 329 322 317 314 310 308 306 300 299 303 300 298 294 289 284 280 278 277 275 276 274 277 276 272 265 260 257 252 245 249 238 220 220 214 223 233
359 338 348 1 347 332 323 317 315 311 309 306 304 304 300 303 308 308 304 294 286 281 277 276 275 274 271 277 281 278 273 265 256 256 258 257 249 241 234 228 219 225 240
9 358 31 360 323 314 306 302 304 303 300 300 296 300 300 299 302 301 302 295 285 284 285 283 281 280 278 276 274 272 270 269 270 261 256 258 257 253 240 231 220 220 231
350 359 339 318 280 297 295 297 294 289 291 296 295 294 291 291 296 297 297 288 285 285 281 279 277 277 277 276 270 265 263 260 264 265 261 259 258 251 246 242 227 218 226
20 325 310 309 301 291 288 289 291 290 290 291 289 289 286 284 284 290 292 288 286 285 280 281 282 287 289 288 286 279 273 274 264 260 257 252 248 242 243 237 234 214 220
291 298 290 283 283 290 285 288 290 289 289 292 293 291 285 283 281 284 289 289 288 287 284 279 278 284 283 281 277 270 273 275 269 259 251 239 237 238 238 238 237 229 226
322 287 281 281 277 276 278 287 292 285 290 293 293 291 288 284 277 281 283 284 283 278 270 270 273 277 278 284 291 284 278 274 272 273 259 247 227 229 232 230 232 236 232
278 278 279 276 284 280 277 284 283 285 289 287 283 282 282 282 284 285 278 274 272 271 267 267 262 267 269 267 274 272 262 259 263 270 266 251 237 220 223 213 218 220 227
262 267 275 269 276 289 279 287 283 282 283 283 287 291 294 295 291 292 300 296 287 279 283 281 265 252 256 256 252 247 251 258 255 262 252 253 227 216 223 212 215 211 212
274 276 275 285 287 289 291 294 293 302 303 302 302 303 300 303 306 309 314 309 304 303 292 285 283 282 277 267 257 253 253 260 256 272 263 232 243 240 231 207 208 209 204
250 274 283 288 289 292 297 298 304 313 309 309 312 317 315 318 322 317 316 319 320 322 311 307 297 291 285 271 257 253 255 258 266 281 263 239 239 235 216 206 198 203 197
264 268 271 277 282 288 290 294 299 303 308 313 319 322 326 327 324 331 333 339 323 324 309 303 299 294 287 276 259 249 254 265 265 266 278 261 245 222 197 202 197 193 188
268 263 258 276 275 283 288 290 295 300 300 299 312 323 320 324 339 339 340 328 321 318 316 311 307 302 308 283 259 250 252 258 265 267 272 256 251 219 205 195 187 191 172
254 258 265 272 287 285 286 287 302 302 300 301 312 319 316 344 342 339 337 333 329 323 320 318 318 317 321 328 284 249 255 257 259 259 260 242 222 190 195 185 179 175 165
244 244 265 278 274 278 282 286 299 299 298 305 310 319 339 352 327 330 332 334 332 328 327 326 326 326 330 332 335 352 320 292 300 358 26 43 81 109 107 133 134 128 128
235 240 251 258 274 281 277 280 303 297 299 307 316 324 342 333 329 330 332 332 332 330 329 327 328 331 330 334 341 348 359 3 4 13 39 53 68 77 89 99 108 115 122
235 261 267 270 262 279 281 279 300 297 304 306 317 326 332 332 331 333 332 332 333 335 336 336 334 339 343 342 345 353 357 360 3 12 42 54 63 74 84 91 102 110 117
230 246 269 274 289 287 284 295 302 297 302 302 311 321 318 322 323 324 326 328 333 336 339 340 340 341 340 352 352 353 5 12 14 24 44 64 69 74 82 85 84 94 99
214 242 266 270 281 285 298 308 294 294 296 297 311 310 313 315 317 322 322 324 328 334 338 340 343 344 351 355 2 6 16 26 33 37 46 63 72 75 82 88 95 91 94
235 238 249 263 275 272 286 301 290 296 301 308 306 308 307 310 310 312 317 323 330 328 333 337 339 344 348 357 3 17 33 39 37 40 47 59 68 71 79 84 89 91 90